CES7744 ZSPD-RJFF

Flight info

Callsign CES7744
Flight time N/A
Altitude 29100
Route LAM81D LAMEN/N0468F292 A593 SADLI Y590 BEDAR Y591 FUE Y253 ATSAG
Aircraft B738/M-SDE2E3FGHIRWXY/LB1

Departure

Time N/A
Airport Shanghai Pudong International Airport (ZSPD)

Arrival

Time 2026-04-30 18:39
Airport Fukuoka Airport (RJFF)
Time Latitude Longitude Altitude Speed Heading
2026-04-30 17:39 32.28162 127.76690 28951 ft 562 kts 68°
2026-04-30 17:42 32.43779 128.19023 28971 ft 562 kts 68°
2026-04-30 17:43 32.51574 128.40355 29037 ft 567 kts 69°
2026-04-30 17:44 32.60901 128.66058 28886 ft 562 kts 69°
2026-04-30 17:46 32.70652 128.85908 28942 ft 561 kts 41°
2026-04-30 17:47 32.83090 128.96843 28942 ft 560 kts 31°
2026-04-30 17:48 32.95743 129.07789 28836 ft 551 kts 33°
2026-04-30 17:48 33.04927 129.15847 26213 ft 551 kts 33°
2026-04-30 17:49 33.17109 129.26540 23590 ft 532 kts 34°
2026-04-30 17:50 33.28695 129.36745 21155 ft 502 kts 34°
2026-04-30 17:51 33.36999 129.44076 20889 ft 490 kts 34°
2026-04-30 17:52 33.44959 129.51124 19689 ft 465 kts 35°
2026-04-30 17:53 33.57628 129.62326 17881 ft 444 kts 36°
2026-04-30 17:54 33.67352 129.71590 17835 ft 446 kts 54°
2026-04-30 17:55 33.73808 129.83816 16393 ft 431 kts 51°
2026-04-30 17:56 33.83928 129.89889 15397 ft 385 kts 16°
2026-04-30 17:57 33.89979 129.95414 15165 ft 352 kts 44°
2026-04-30 17:58 33.94798 130.01541 14710 ft 326 kts 68°
2026-04-30 17:59 33.98379 130.11385 13692 ft 316 kts 70°
2026-04-30 18:00 33.99145 130.21414 12435 ft 294 kts 107°
2026-04-30 18:00 33.95358 130.25865 11512 ft 251 kts 173°
2026-04-30 18:01 33.92545 130.25816 10992 ft 242 kts 193°
2026-04-30 18:02 33.87579 130.24783 10076 ft 244 kts 193°
2026-04-30 18:02 33.82560 130.23742 9142 ft 244 kts 193°
2026-04-30 18:03 33.77579 130.22721 8332 ft 240 kts 193°
2026-04-30 18:04 33.72555 130.21694 8030 ft 247 kts 193°
2026-04-30 18:05 33.66191 130.23970 8035 ft 260 kts 149°
2026-04-30 18:06 33.60288 130.29085 8022 ft 261 kts 150°
2026-04-30 18:07 33.54374 130.33988 7994 ft 257 kts 153°
2026-04-30 18:08 33.49897 130.37449 8011 ft 256 kts 149°
2026-04-30 18:09 33.43877 130.41894 7970 ft 241 kts 158°
2026-04-30 18:10 33.38655 130.46086 7399 ft 216 kts 153°
2026-04-30 18:11 33.33832 130.49758 6383 ft 202 kts 153°
2026-04-30 18:11 33.30240 130.52580 5228 ft 211 kts 141°
2026-04-30 18:12 33.30460 130.57266 4929 ft 191 kts 57°
2026-04-30 18:13 33.31760 130.59947 4195 ft 185 kts 54°
2026-04-30 18:13 33.34571 130.61237 3993 ft 165 kts 336°
2026-04-30 18:14 33.36960 130.59875 3995 ft 159 kts 327°
2026-04-30 18:15 33.39846 130.57943 3974 ft 154 kts 325°
2026-04-30 18:15 33.42444 130.56161 3430 ft 137 kts 325°
2026-04-30 18:16 33.44079 130.55037 3065 ft 134 kts 325°
2026-04-30 18:16 33.45670 130.53910 2721 ft 136 kts 327°
2026-04-30 18:17 33.46489 130.53370 2531 ft 133 kts 326°
2026-04-30 18:17 33.47298 130.52820 2358 ft 135 kts 325°
2026-04-30 18:17 33.48954 130.51686 1989 ft 136 kts 326°
2026-04-30 18:18 33.49767 130.51128 1805 ft 137 kts 325°
2026-04-30 18:18 33.50585 130.50567 1621 ft 134 kts 325°
2026-04-30 18:18 33.51379 130.50020 1432 ft 131 kts 325°
2026-04-30 18:19 33.52912 130.48957 1066 ft 131 kts 326°
2026-04-30 18:19 33.53707 130.48421 926 ft 133 kts 327°
2026-04-30 18:19 33.54517 130.47866 758 ft 136 kts 326°
2026-04-30 18:19 33.55331 130.47305 539 ft 130 kts 328°
2026-04-30 18:20 33.56078 130.46794 381 ft 120 kts 324°
2026-04-30 18:20 33.56834 130.46257 258 ft 136 kts 326°
2026-04-30 18:20 33.57658 130.45707 85 ft 134 kts 326°
2026-04-30 18:20 33.58416 130.45195 41 ft 113 kts 327°
2026-04-30 18:21 33.59072 130.44787 123 ft 122 kts 327°
2026-04-30 18:21 33.59893 130.44211 844 ft 152 kts 327°
2026-04-30 18:21 33.60849 130.43529 1970 ft 160 kts 324°
2026-04-30 18:21 33.61947 130.42768 2528 ft 202 kts 327°
2026-04-30 18:22 33.63238 130.41906 3039 ft 218 kts 327°
2026-04-30 18:22 33.65957 130.40079 4612 ft 232 kts 325°
2026-04-30 18:22 33.67114 130.38777 5466 ft 226 kts 293°
2026-04-30 18:23 33.67579 130.36977 6313 ft 229 kts 283°
2026-04-30 18:23 33.68059 130.35106 7047 ft 235 kts 279°
2026-04-30 18:23 33.68072 130.33173 7647 ft 234 kts 251°
2026-04-30 18:23 33.67259 130.31498 7961 ft 236 kts 227°
2026-04-30 18:24 33.64259 130.30052 7964 ft 245 kts 181°
2026-04-30 18:24 33.62564 130.30426 7971 ft 250 kts 171°
2026-04-30 18:24 33.60874 130.30974 7974 ft 252 kts 170°
2026-04-30 18:25 33.59183 130.31527 7980 ft 252 kts 170°
2026-04-30 18:25 33.55807 130.32750 7968 ft 258 kts 156°
2026-04-30 18:25 33.54281 130.33908 7977 ft 260 kts 152°
2026-04-30 18:26 33.51266 130.36308 7813 ft 261 kts 152°
2026-04-30 18:26 33.49736 130.37507 7679 ft 262 kts 152°
2026-04-30 18:26 33.48236 130.38681 7608 ft 253 kts 152°
2026-04-30 18:27 33.45397 130.40879 7327 ft 235 kts 153°
2026-04-30 18:27 33.44013 130.41910 6924 ft 234 kts 155°
2026-04-30 18:28 33.41322 130.44067 6385 ft 233 kts 150°
2026-04-30 18:28 33.39953 130.45141 5893 ft 237 kts 153°
2026-04-30 18:28 33.37162 130.47234 5143 ft 237 kts 152°
2026-04-30 18:29 33.35796 130.48274 4998 ft 226 kts 151°
2026-04-30 18:29 33.32108 130.51102 5006 ft 205 kts 152°
2026-04-30 18:30 33.29805 130.53145 4977 ft 213 kts 123°
2026-04-30 18:30 33.30006 130.56315 4851 ft 190 kts 57°
2026-04-30 18:31 33.30653 130.57663 4645 ft 183 kts 56°
2026-04-30 18:31 33.31945 130.60273 4016 ft 182 kts 47°
2026-04-30 18:32 33.34093 130.61329 3999 ft 166 kts 350°
2026-04-30 18:32 33.35152 130.60899 4007 ft 159 kts 326°
2026-04-30 18:32 33.37128 130.59705 3972 ft 153 kts 328°
2026-04-30 18:33 33.38026 130.59147 4008 ft 140 kts 326°
2026-04-30 18:33 33.39734 130.58012 4005 ft 140 kts 325°
2026-04-30 18:33 33.40589 130.57429 3839 ft 141 kts 324°
2026-04-30 18:34 33.41436 130.56851 3652 ft 139 kts 324°
2026-04-30 18:34 33.43105 130.55705 3296 ft 143 kts 326°
2026-04-30 18:34 33.43959 130.55122 3089 ft 137 kts 326°
2026-04-30 18:35 33.44782 130.54595 2917 ft 133 kts 328°
2026-04-30 18:35 33.45588 130.54029 2749 ft 135 kts 324°
2026-04-30 18:35 33.46403 130.53465 2546 ft 134 kts 327°
2026-04-30 18:36 33.47971 130.52324 2190 ft 132 kts 326°
2026-04-30 18:36 33.48789 130.51784 2015 ft 137 kts 326°
2026-04-30 18:36 33.50430 130.50673 1652 ft 132 kts 325°
2026-04-30 18:37 33.51225 130.50127 1469 ft 133 kts 325°
2026-04-30 18:37 33.52041 130.49565 1303 ft 136 kts 327°
2026-04-30 18:37 33.52858 130.49006 1093 ft 132 kts 326°
2026-04-30 18:37 33.53640 130.48467 915 ft 130 kts 327°
2026-04-30 18:38 33.54449 130.47910 771 ft 134 kts 326°
2026-04-30 18:38 33.55260 130.47348 589 ft 134 kts 324°
2026-04-30 18:38 33.56033 130.46822 429 ft 124 kts 325°
2026-04-30 18:38 33.56775 130.46300 224 ft 125 kts 327°
2026-04-30 18:39 33.57549 130.45784 81 ft 129 kts 327°
2026-04-30 18:39 33.58267 130.45309 36 ft 108 kts 326°
2026-04-30 18:39 33.58788 130.44927 29 ft 58 kts 330°
2026-04-30 18:39 33.58981 130.44800 28 ft 20 kts 330°
2026-04-30 18:40 33.59098 130.44717 24 ft 19 kts 328°
2026-04-30 18:40 33.59213 130.44638 22 ft 19 kts 329°
2026-04-30 18:40 33.59318 130.44580 22 ft 0 kts 359°
2026-04-30 18:40 33.59323 130.44585 21 ft 2 kts 47°
2026-04-30 18:41 33.59330 130.44624 21 ft 10 kts 75°
2026-04-30 18:41 33.59366 130.44706 22 ft 11 kts 58°
2026-04-30 18:41 33.59428 130.44725 23 ft 11 kts 332°
2026-04-30 18:41 33.59500 130.44676 23 ft 13 kts 329°
2026-04-30 18:42 33.59592 130.44613 22 ft 17 kts 329°
2026-04-30 18:42 33.59765 130.44508 21 ft 5 kts
2026-04-30 18:42 33.59787 130.44527 20 ft 3 kts 60°
2026-04-30 18:45 33.59852 130.44666 22 ft 0 kts 61°